Find Kosmos-2098

NORAD ID: 20774 Int'l Des: 1990-078 Owner: PVO Country: SU operational
LEOPOLAR

Aktuelle Ansicht

3D-Globus wird geladen...

Über Kosmos-2098

Beschreibung wird geladen...

Nächste Überflüge

Passes for default location (London). Set your location on the main map for personalized predictions.

Höhenverlauf

Loading altitude history...

Zweizeiliger Elementsatz

1 20774U 90078A 26151.15607860 .00002894 00000-0 20685-3 0 9999
2 20774 82.9398 93.9744 0742310 269.7457 81.8707 13.90161276770151
Epoch: 31. Mai 2026 • Age: 10 hours

Aktueller Status

Höhe 875.5 km
Geschwindigkeit 7.44 km/s
Subsatellitenpunkt -3.28°S, 7.27°W
Startdatum 28. Aug. 1990
Alter 35.7 years
Typ other

Technische Details

Klassifizierung Payload
Masse 585.00 kg
Trockenmasse 585.00 kg
Gesamtmasse 585.00 kg
Länge 2.00 m
Durchmesser 2.00 m
Spannweite 2.00 m
Form Sphere
Hersteller YUZH
Bus-Typ Vektor
Phasenstatus In Orbit
Besitzer/Staat PVO/SU

Most Searched